Oaxaca, Mexico

2:53 AM CST on January 23, 2018 (GMT -0600)
Xoxocotlan International

Weather History for MMOX - October, 2012

Change the Weather History Date:

Wednesday, October 17, 2012

  Actual Average Record
Temperature  
Mean Temperature 68 °F -  
Max Temperature 89 °F 78 °F 91 °F (2006)
Min Temperature 48 °F 53 °F 48 °F (2012)
Cooling Degree Days 4    
Growing Degree Days 18 (Base 50)    
Moisture  
Dew Point 53 °F    
Average Humidity 55    
Maximum Humidity 94    
Minimum Humidity 21    
Precipitation  
Precipitation 0.00 in - - ()
Sea Level Pressure  
Sea Level Pressure 29.96 in    
Wind  
Wind Speed 3 mph ()    
Max Wind Speed 7 mph    
Max Gust Speed -    
Visibility 9.5 miles    
Events      
Averages and records for this station are not official NWS values.
T = Trace of Precipitation, MM = Missing Value Source: Averaged Metar Reports

Daily Weather History Graph

Daily Weather History Graph

Search for Another Location

Airport or City:

Trip Planner

Search our weather history database for the weather conditions in past years. The results will help you decide how hot, cold, wet, or windy it might be!

Date:

Astronomy

Oct. 17, 2012 Rise Set
Actual Time 7:20 AM CDT 7:03 PM CDT
Civil Twilight 6:58 AM CDT 7:25 PM CDT
Nautical Twilight 6:33 AM CDT 7:50 PM CDT
Astronomical Twilight 6:07 AM CDT 8:16 PM CDT
Moon 9:30 AM CDT (10/17) 9:07 PM CDT (10/17)
Length of Visible Light 12h 27m
Length of Day
11h 43m
Waxing Crescent, 7% of the Moon is Illuminated
Oct 17
Waxing Crescent
Oct 21
First Quarter
Oct 29
Full
Nov 6
Last Quarter
Nov 13
New

Hourly Weather History & Observations

Time (CDT) Temp. Heat Index Dew Point Humidity Pressure Visibility Wind Dir Wind Speed Gust Speed Precip Events Conditions
3:55 AM 58 °F - 51 °F 69% 29.91 in 6 mi ENE 2.2 mph - -   Partly Cloudy
5:58 AM 51.8 °F - 50.0 °F 94% 30.16 in 8.0 mi NW 4.6 mph - N/A   Clear
6:41 AM 51.8 °F - 50.0 °F 94% 29.88 in 8.0 mi NNW 4.6 mph - N/A   Clear
6:45 AM 56 °F - 52 °F 81% 29.98 in 6 mi NE 2.2 mph - -   Partly Cloudy
7:42 AM 51.8 °F - 50.0 °F 94% 30.19 in 8.0 mi NW 3.5 mph - N/A   Mostly Cloudy
8:41 AM 57.2 °F - 53.6 °F 88% 30.19 in 8.0 mi North 6.9 mph - N/A   Mostly Cloudy
9:30 AM 66 °F - 54 °F 55% 30.02 in 12 mi NE 2.2 mph - -   Partly Cloudy
9:41 AM 62.6 °F - 55.4 °F 77% 29.90 in 8.0 mi NE 3.5 mph - N/A   Mostly Cloudy
10:41 AM 68.0 °F - 55.4 °F 64% 30.20 in 8.0 mi NE 4.6 mph - N/A   Mostly Cloudy
11:41 AM 73.4 °F - 57.2 °F 57% 30.18 in 10.0 mi NNW 2.3 mph - N/A   Mostly Cloudy
12:30 PM 83 °F - 54 °F 27% 29.92 in 12 mi NW 2.2 mph - -   Partly Cloudy
12:42 PM 78.8 °F - 55.4 °F 44% 29.78 in 10.0 mi NW 6.9 mph - N/A   Mostly Cloudy
1:48 PM 80.6 °F 80.3 °F 53.6 °F 39% 30.08 in 12.0 mi NNW 5.8 mph - N/A   Mostly Cloudy
2:45 PM 82.4 °F 81.7 °F 55.4 °F 39% 30.05 in 12.0 mi Calm Calm - N/A   Mostly Cloudy
3:45 PM 89 °F - 54 °F 21% 29.73 in 12 mi SSE 4.5 mph - -   Haze
3:45 PM 82.4 °F - 51.8 °F 35% 29.68 in 12.0 mi NE 5.8 mph - N/A   Mostly Cloudy
4:45 PM 84.2 °F - 51.8 °F 33% 30.01 in 12.0 mi ENE 5.8 mph - N/A   Mostly Cloudy
5:45 PM 82.4 °F - 48.2 °F 30% 30.01 in 12.0 mi NNE 5.8 mph - N/A   Mostly Cloudy
6:45 PM 79 °F - 47 °F 22% 29.68 in 12 mi NW 4.5 mph - -   Partly Cloudy
6:45 PM 77.0 °F - 48.2 °F 36% 29.75 in 10.0 mi Calm Calm - N/A   Mostly Cloudy
7:45 PM 73.4 °F - 48.2 °F 41% 30.06 in 8.0 mi Calm Calm - N/A   Mostly Cloudy
8:48 PM 68.0 °F - 53.6 °F 60% 30.11 in 8.0 mi Calm Calm - N/A   Mostly Cloudy
9:45 PM 70 °F - 54 °F 46% 29.75 in 6 mi NW 2.2 mph - -  
9:45 PM 66.2 °F - 57.2 °F 73% 29.82 in 8.0 mi Calm Calm - N/A   Scattered Clouds